sat.trackr.live / text

‹ back to catalog

AEROCUBE 16A

NORAD 59290 · 2024-053C

PAYLOAD ACTIVE UNKNOWN

§ Identity

Operator
Country
US
Launch date
2024-03-21
Launch site
WLPIS
Launch vehicle
Mass (kg)
RCS (m²)

External: N2YO · Heavens-Above · Gunter

§ Orbital elements

Epoch: 2026-09-21T23:25:54.759072Z

Period
93.11 min
Inclination
49.9871°
Eccentricity
0.0002643
Mean motion
15.46537110 rev/d
Perigee alt
425.1 km
Apogee alt
428.7 km
Semi-major
6,805.0 km
B*
2.5557e-4
RAAN
191.5155°
Arg perigee
40.7223°
Mean anomaly
319.3938°
Rev number
13,607

§ Raw data

AEROCUBE 16A1 59290U 24053C   26264.97632823  .00012530  00000+0  25557-3 0  99962 59290  49.9871 191.5155 0002643  40.7223 319.3938 15.46537110136071

JSON: /api/v1/satellites/59290 · /tle

For live sub-satellite position, see the globe view (requires WebGL).

§ Visibility from observer

Set your observer location to see the next 7 days of passes ≥ 10°. The values pass through the URL so the page stays shareable.

No JS? Fill the form by hand. The geolocation button needs JavaScript.